Weather History for Watsonville, CA

Change the Weather History Date:

Thursday, May 15, 2014

  Actual Average Record
Temperature  
Mean Temperature 76 °F 59 °F  
Max Temperature 95 °F 70 °F 95 °F (2014)
Min Temperature 57 °F 48 °F 38 °F (1999)
Degree Days  
Heating Degree Days 0    
Month to date heating degree days 54  
Since 1 July heating degree days 2253  
Cooling Degree Days 11    
Month to date cooling degree days 38  
Year to date cooling degree days 44  
Growing Degree Days 28 (Base 50)    
Moisture  
Dew Point 43 °F    
Average Humidity 40    
Maximum Humidity 67    
Minimum Humidity 12    
Precipitation  
Precipitation 0.00 in - 0.18 in (2000)
Month to date precipitation 0.03  
Year to date precipitation 8.17  
Since 1 July precipitation 9.24  
Sea Level Pressure  
Sea Level Pressure 30.06 in    
Wind  
Wind Speed 4 mph (South)    
Max Wind Speed 10 mph    
Max Gust Speed 13 mph    
Visibility 10 miles    
Events      
T = Trace of Precipitation, MM = Missing Value Source: NWS Daily Summary

Daily Weather History Graph

Daily Weather History Graph

Search for Another Location

Airport:

Trip Planner

Search our weather history database for the weather conditions in past years. The results will help you decide how hot, cold, wet, or windy it might be!

Date:

Astronomy

May. 15, 2014 Rise Set
Actual Time 5:59 AM PDT 8:08 PM PDT
Civil Twilight 5:30 AM PDT 8:37 PM PDT
Nautical Twilight 4:54 AM PDT 9:12 PM PDT
Astronomical Twilight 4:16 AM PDT 9:51 PM PDT
Moon 9:21 PM PDT (5/15) 6:50 AM PDT (5/15)
Length of Visible Light 15h 07m
Length of Day
14h 09m
Full, 99% of the Moon is Illuminated
May 15
Full
May 21
Last Quarter
May 28
New
Jun 5
First Quarter
Jun 12
Full

Hourly Weather History & Observations

Time (PDT) Temp. Dew Point Humidity Pressure Visibility Wind Dir Wind Speed Gust Speed Precip Events Conditions
12:53 AM 64.0 °F 45.0 °F 50% 30.08 in 10.0 mi NW 4.6 mph - N/A   Clear
1:53 AM 64.0 °F 44.1 °F 48% 30.07 in 10.0 mi NNW 4.6 mph - N/A   Clear
2:53 AM 62.1 °F 44.1 °F 52% 30.06 in 10.0 mi WNW 4.6 mph - N/A   Clear
3:53 AM 63.0 °F 41.0 °F 45% 30.06 in 10.0 mi WNW 4.6 mph - N/A   Clear
4:53 AM 61.0 °F 42.1 °F 50% 30.05 in 10.0 mi WNW 4.6 mph - N/A   Clear
5:53 AM 60.1 °F 41.0 °F 49% 30.06 in 10.0 mi NW 4.6 mph - N/A   Clear
6:53 AM 63.0 °F 41.0 °F 45% 30.07 in 10.0 mi NW 3.5 mph - N/A   Clear
7:53 AM 70.0 °F 39.9 °F 33% 30.09 in 10.0 mi ESE 4.6 mph - N/A   Clear
8:53 AM 75.0 °F 41.0 °F 29% 30.09 in 10.0 mi ESE 3.5 mph - N/A   Clear
9:53 AM 81.0 °F 39.9 °F 23% 30.09 in 10.0 mi SE 3.5 mph - N/A   Clear
10:53 AM 84.9 °F 39.9 °F 20% 30.09 in 10.0 mi Calm Calm - N/A   Clear
12:53 PM 91.0 °F 37.0 °F 15% 30.06 in 10.0 mi South 6.9 mph - N/A   Clear
1:53 PM 91.9 °F 37.0 °F 15% 30.04 in 10.0 mi South 8.1 mph - N/A   Clear
2:53 PM 95.0 °F 36.0 °F 13% 30.03 in 10.0 mi SSW 8.1 mph - N/A   Clear
3:53 PM 82.0 °F 51.1 °F 34% 30.03 in 10.0 mi SE 6.9 mph - N/A   Clear
4:53 PM 75.9 °F 55.0 °F 48% 30.02 in 10.0 mi ESE 8.1 mph - N/A   Clear
5:53 PM 70.0 °F 51.1 °F 51% 30.02 in 10.0 mi SSE 8.1 mph - N/A   Clear
6:53 PM 71.1 °F 48.0 °F 44% 30.03 in 10.0 mi SE 6.9 mph - N/A   Clear
7:53 PM 66.9 °F 45.0 °F 45% 30.04 in 10.0 mi SSE 5.8 mph - N/A   Clear
8:53 PM 64.0 °F 43.0 °F 46% 30.06 in 10.0 mi SSE 4.6 mph - N/A   Clear
9:53 PM 62.1 °F 43.0 °F 50% 30.08 in 10.0 mi Calm Calm - N/A   Clear
10:53 PM 61.0 °F 45.0 °F 56% 30.09 in 10.0 mi Calm Calm - N/A   Clear
11:53 PM 59.0 °F 48.0 °F 67% 30.09 in 10.0 mi Calm Calm - N/A   Clear